Location: Mainz-Finthen
(49.9906°N, 8.1713°E)
Time: 02:57:38
(UTC+00:00)

BlueWalker 3 - Pass Details

Date: 03 December 2022
Orbit: 499 x 517 km, 53.2° (Epoch: 26 January)

Event Time Altitude Azimuth Distance (km) Brightness Sun altitude
Rises 17:10:19 0° 280° (W) 2,633 6.8 -15.7°
Reaches altitude 10° 17:12:35 10° 285° (WNW) 1,742 5.6 -16.1°
Maximum altitude 17:16:26 52° 3° (N) 643 2.3 -16.7°
Enters shadow 17:17:39 36° 57° (ENE) 821 2.5 -16.9°
